PHA82 YSSY-YMML

Flight info

Callsign PHA82
Flight time 1h 9m
Altitude 34000
Route WOL H65 LEECE Q29 ML
Aircraft B738/M-SDE2E3FGHIRWXY/LB1

Departure

Time 2026-04-20 13:45
Airport Sydney Kingsford Smith International Airport (YSSY)

Arrival

Time 2026-04-20 14:55
Airport Melbourne Airport (YMML)
Time Latitude Longitude Altitude Speed Heading
2026-04-20 13:22 -33.93113 151.16764 29 ft 0 kts 257°
2026-04-20 13:38 -33.93110 151.16780 29 ft 4 kts 257°
2026-04-20 13:38 -33.93104 151.16813 29 ft 4 kts 257°
2026-04-20 13:38 -33.93098 151.16845 29 ft 4 kts 257°
2026-04-20 13:38 -33.93092 151.16875 29 ft 4 kts 253°
2026-04-20 13:39 -33.93089 151.16897 29 ft 2 kts 275°
2026-04-20 13:39 -33.93091 151.16911 29 ft 2 kts 307°
2026-04-20 13:39 -33.93099 151.16921 29 ft 2 kts 334°
2026-04-20 13:39 -33.93108 151.16925 29 ft 0 kts 346°
2026-04-20 13:41 -33.93106 151.16924 29 ft 1 kts 346°
2026-04-20 13:41 -33.93084 151.16919 29 ft 6 kts 348°
2026-04-20 13:41 -33.93030 151.16909 29 ft 9 kts
2026-04-20 13:42 -33.92984 151.16954 29 ft 9 kts 71°
2026-04-20 13:42 -33.92967 151.17040 29 ft 0 kts 77°
2026-04-20 13:43 -33.92967 151.17041 29 ft 0 kts 77°
2026-04-20 13:44 -33.92962 151.17069 30 ft 8 kts 81°
2026-04-20 13:44 -33.92987 151.17165 30 ft 17 kts 142°
2026-04-20 13:44 -33.93051 151.17188 29 ft 0 kts 167°
2026-04-20 13:44 -33.93064 151.17192 29 ft 11 kts 167°
2026-04-20 13:45 -33.93420 151.17284 26 ft 96 kts 168°
2026-04-20 13:45 -33.94328 151.17514 35 ft 168 kts 168°
2026-04-20 13:45 -33.95606 151.17870 535 ft 200 kts 169°
2026-04-20 13:45 -33.97018 151.18314 1196 ft 217 kts 168°
2026-04-20 13:46 -33.98549 151.18258 1846 ft 226 kts 189°
2026-04-20 13:46 -34.00112 151.17944 2520 ft 233 kts 187°
2026-04-20 13:46 -34.01748 151.17695 3218 ft 242 kts 186°
2026-04-20 13:46 -34.03432 151.17689 4140 ft 242 kts 168°
2026-04-20 13:47 -34.05064 151.18214 4739 ft 242 kts 164°
2026-04-20 13:47 -34.06686 151.18784 4992 ft 246 kts 164°
2026-04-20 13:47 -34.08347 151.19364 4995 ft 249 kts 165°
2026-04-20 13:47 -34.10011 151.19934 5005 ft 249 kts 165°
2026-04-20 13:48 -34.11695 151.20502 5452 ft 252 kts 165°
2026-04-20 13:48 -34.13409 151.20919 6427 ft 252 kts 182°
2026-04-20 13:48 -34.15083 151.20316 7369 ft 256 kts 205°
2026-04-20 13:48 -34.16546 151.19071 8151 ft 264 kts 215°
2026-04-20 13:49 -34.17976 151.17636 8973 ft 269 kts 216°
2026-04-20 13:49 -34.19415 151.16153 9789 ft 274 kts 217°
2026-04-20 13:49 -34.20889 151.14635 10427 ft 286 kts 217°
2026-04-20 13:49 -34.22484 151.13003 10614 ft 312 kts 217°
2026-04-20 13:50 -34.24211 151.11243 10871 ft 334 kts 217°
2026-04-20 13:50 -34.25991 151.09430 11469 ft 341 kts 217°
2026-04-20 13:50 -34.27819 151.07569 12240 ft 344 kts 218°
2026-04-20 13:50 -34.29654 151.05703 13036 ft 346 kts 218°
2026-04-20 13:51 -34.31514 151.03813 13784 ft 350 kts 218°
2026-04-20 13:51 -34.33394 151.01905 14509 ft 353 kts 218°
2026-04-20 13:51 -34.35286 150.99985 15209 ft 356 kts 218°
2026-04-20 13:51 -34.37191 150.98051 15904 ft 358 kts 217°
2026-04-20 13:52 -34.39085 150.96127 16583 ft 361 kts 217°
2026-04-20 13:52 -34.41019 150.94163 17253 ft 364 kts 217°
2026-04-20 13:52 -34.42967 150.92182 17934 ft 367 kts 217°
2026-04-20 13:52 -34.44939 150.90176 18604 ft 370 kts 217°
2026-04-20 13:53 -34.46914 150.88166 19177 ft 373 kts 217°
2026-04-20 13:53 -34.48909 150.86133 19745 ft 375 kts 217°
2026-04-20 13:53 -34.50892 150.84112 20303 ft 378 kts 217°
2026-04-20 13:53 -34.52916 150.82048 20860 ft 381 kts 217°
2026-04-20 13:54 -34.54943 150.79958 21404 ft 384 kts 219°
2026-04-20 13:54 -34.56801 150.77580 21927 ft 391 kts 228°
2026-04-20 13:54 -34.58430 150.74927 22446 ft 394 kts 230°
2026-04-20 13:54 -34.60052 150.72205 22961 ft 398 kts 230°
2026-04-20 13:55 -34.61673 150.69467 23453 ft 401 kts 230°
2026-04-20 13:55 -34.63285 150.66749 23923 ft 404 kts 230°
2026-04-20 13:55 -34.64944 150.63964 24344 ft 406 kts 230°
2026-04-20 13:55 -34.66607 150.61181 24788 ft 407 kts 230°
2026-04-20 13:56 -34.68280 150.58387 25221 ft 409 kts 230°
2026-04-20 13:56 -34.69960 150.55584 25635 ft 410 kts 230°
2026-04-20 13:56 -34.71641 150.52780 26042 ft 412 kts 229°
2026-04-20 13:56 -34.73314 150.49989 26440 ft 414 kts 229°
2026-04-20 13:57 -34.75015 150.47147 26813 ft 416 kts 229°
2026-04-20 13:57 -34.76717 150.44304 27196 ft 417 kts 229°
2026-04-20 13:57 -34.78429 150.41440 27579 ft 419 kts 229°
2026-04-20 13:57 -34.80151 150.38556 27947 ft 421 kts 229°
2026-04-20 13:58 -34.81878 150.35663 28297 ft 423 kts 229°
2026-04-20 13:58 -34.83610 150.32758 28616 ft 425 kts 229°
2026-04-20 13:58 -34.85351 150.29836 28976 ft 427 kts 229°
2026-04-20 13:58 -34.87099 150.26900 29364 ft 427 kts 229°
2026-04-20 13:59 -34.88841 150.23970 29715 ft 428 kts 229°
2026-04-20 13:59 -34.90573 150.21056 29929 ft 432 kts 229°
2026-04-20 13:59 -34.92341 150.18080 30242 ft 433 kts 229°
2026-04-20 13:59 -34.94102 150.15110 30675 ft 431 kts 229°
2026-04-20 14:00 -34.95852 150.12153 31130 ft 428 kts 229°
2026-04-20 14:00 -34.97590 150.09216 31516 ft 426 kts 229°
2026-04-20 14:00 -34.99330 150.06276 31850 ft 426 kts 229°
2026-04-20 14:00 -35.01064 150.03345 32178 ft 425 kts 229°
2026-04-20 14:01 -35.02776 150.00449 32534 ft 424 kts 229°
2026-04-20 14:01 -35.04496 149.97534 32929 ft 422 kts 229°
2026-04-20 14:01 -35.06210 149.94630 33299 ft 420 kts 229°
2026-04-20 14:01 -35.07920 149.91734 33603 ft 420 kts 229°
2026-04-20 14:02 -35.09628 149.88841 33925 ft 419 kts 229°
2026-04-20 14:02 -35.11309 149.85991 34274 ft 417 kts 229°
2026-04-20 14:02 -35.13013 149.83101 34412 ft 421 kts 229°
2026-04-20 14:02 -35.14733 149.80183 34421 ft 423 kts 229°
2026-04-20 14:03 -35.18164 149.74346 34410 ft 418 kts 229°
2026-04-20 14:03 -35.21516 149.68630 34423 ft 415 kts 229°
2026-04-20 14:04 -35.24877 149.62896 34437 ft 415 kts 229°
2026-04-20 14:04 -35.27674 149.58117 34423 ft 415 kts 230°
2026-04-20 14:05 -35.31041 149.52354 34412 ft 416 kts 230°
2026-04-20 14:05 -35.34412 149.46575 34418 ft 417 kts 230°
2026-04-20 14:06 -35.37762 149.40822 34410 ft 417 kts 230°
2026-04-20 14:06 -35.41138 149.35014 34402 ft 418 kts 230°
2026-04-20 14:07 -35.44516 149.29194 34406 ft 418 kts 230°
2026-04-20 14:07 -35.47873 149.23399 34417 ft 419 kts 230°
2026-04-20 14:08 -35.51251 149.17559 34416 ft 419 kts 230°
2026-04-20 14:08 -35.54630 149.11707 34427 ft 419 kts 230°
2026-04-20 14:09 -35.58006 149.05850 34427 ft 419 kts 230°
2026-04-20 14:09 -35.61356 149.00029 34440 ft 420 kts 230°
2026-04-20 14:10 -35.64725 148.94165 34440 ft 419 kts 230°
2026-04-20 14:10 -35.68075 148.88324 34426 ft 419 kts 230°
2026-04-20 14:11 -35.71441 148.82447 34770 ft 419 kts 231°
2026-04-20 14:11 -35.73113 148.79522 35128 ft 416 kts 231°
2026-04-20 14:11 -35.74778 148.76605 35462 ft 414 kts 231°
2026-04-20 14:12 -35.76427 148.73716 35755 ft 412 kts 231°
2026-04-20 14:12 -35.78077 148.70826 36010 ft 412 kts 231°
2026-04-20 14:12 -35.79719 148.67945 36248 ft 411 kts 231°
2026-04-20 14:12 -35.81361 148.65061 36502 ft 410 kts 231°
2026-04-20 14:13 -35.82981 148.62214 36748 ft 409 kts 231°
2026-04-20 14:13 -35.84613 148.59344 36990 ft 408 kts 231°
2026-04-20 14:13 -35.86243 148.56475 37235 ft 407 kts 231°
2026-04-20 14:13 -35.87870 148.53610 37460 ft 407 kts 231°
2026-04-20 14:14 -35.89487 148.50751 37667 ft 407 kts 231°
2026-04-20 14:14 -35.91108 148.47874 37863 ft 407 kts 232°
2026-04-20 14:14 -35.92700 148.45044 38096 ft 406 kts 232°
2026-04-20 14:14 -35.94303 148.42189 38345 ft 404 kts 232°
2026-04-20 14:15 -35.97524 148.36451 38402 ft 407 kts 232°
2026-04-20 14:15 -36.00747 148.30697 38393 ft 405 kts 232°
2026-04-20 14:16 -36.03930 148.25007 38391 ft 403 kts 232°
2026-04-20 14:16 -36.07113 148.19309 38388 ft 402 kts 232°
2026-04-20 14:17 -36.10285 148.13624 38388 ft 401 kts 232°
2026-04-20 14:17 -36.13450 148.07949 38385 ft 401 kts 232°
2026-04-20 14:18 -36.16626 148.02267 38389 ft 401 kts 232°
2026-04-20 14:18 -36.19804 147.96571 38404 ft 402 kts 232°
2026-04-20 14:19 -36.22981 147.90866 38394 ft 404 kts 232°
2026-04-20 14:19 -36.26177 147.85115 38378 ft 405 kts 233°
2026-04-20 14:20 -36.29361 147.79375 38399 ft 407 kts 233°
2026-04-20 14:20 -36.32573 147.73577 38391 ft 408 kts 233°
2026-04-20 14:21 -36.35792 147.67750 38396 ft 409 kts 233°
2026-04-20 14:21 -36.39007 147.61913 38394 ft 410 kts 233°
2026-04-20 14:22 -36.42229 147.56053 38386 ft 410 kts 233°
2026-04-20 14:22 -36.45424 147.50233 38387 ft 409 kts 233°
2026-04-20 14:23 -36.48632 147.44378 38390 ft 409 kts 233°
2026-04-20 14:23 -36.51810 147.38569 38383 ft 408 kts 233°
2026-04-20 14:24 -36.54994 147.32740 38379 ft 407 kts 233°
2026-04-20 14:24 -36.58174 147.26908 38378 ft 407 kts 233°
2026-04-20 14:25 -36.61349 147.21074 38389 ft 406 kts 233°
2026-04-20 14:25 -36.62917 147.18189 38078 ft 411 kts 234°
2026-04-20 14:25 -36.64523 147.15233 37609 ft 411 kts 233°
2026-04-20 14:26 -36.66124 147.12281 37054 ft 409 kts 233°
2026-04-20 14:26 -36.67713 147.09349 36458 ft 408 kts 233°
2026-04-20 14:26 -36.69303 147.06414 35959 ft 406 kts 233°
2026-04-20 14:26 -36.70860 147.03539 35522 ft 403 kts 233°
2026-04-20 14:27 -36.72430 147.00641 34989 ft 403 kts 233°
2026-04-20 14:27 -36.73991 146.97758 34558 ft 400 kts 233°
2026-04-20 14:27 -36.75546 146.94883 34084 ft 397 kts 233°
2026-04-20 14:27 -36.77083 146.92041 33632 ft 394 kts 233°
2026-04-20 14:28 -36.78613 146.89208 33176 ft 391 kts 233°
2026-04-20 14:28 -36.80124 146.86406 32765 ft 387 kts 233°
2026-04-20 14:28 -36.81624 146.83626 32345 ft 384 kts 233°
2026-04-20 14:28 -36.83108 146.80871 31933 ft 381 kts 233°
2026-04-20 14:29 -36.84563 146.78167 31556 ft 378 kts 233°
2026-04-20 14:29 -36.86028 146.75444 31151 ft 375 kts 233°
2026-04-20 14:29 -36.87480 146.72742 30750 ft 373 kts 233°
2026-04-20 14:29 -36.88922 146.70056 30353 ft 370 kts 233°
2026-04-20 14:30 -36.90337 146.67420 29887 ft 368 kts 233°
2026-04-20 14:30 -36.91754 146.64778 29472 ft 364 kts 233°
2026-04-20 14:30 -36.93158 146.62157 29054 ft 361 kts 233°
2026-04-20 14:30 -36.94553 146.59549 28665 ft 357 kts 233°
2026-04-20 14:31 -36.95934 146.56968 28246 ft 355 kts 233°
2026-04-20 14:31 -36.97299 146.54413 27840 ft 352 kts 233°
2026-04-20 14:31 -36.98660 146.51866 27454 ft 350 kts 233°
2026-04-20 14:31 -37.00008 146.49339 27071 ft 348 kts 233°
2026-04-20 14:32 -37.01349 146.46827 26686 ft 347 kts 233°
2026-04-20 14:32 -37.02670 146.44348 26303 ft 346 kts 233°
2026-04-20 14:32 -37.04011 146.41829 25919 ft 350 kts 233°
2026-04-20 14:32 -37.05380 146.39260 25534 ft 360 kts 233°
2026-04-20 14:33 -37.06776 146.36637 25102 ft 363 kts 234°
2026-04-20 14:33 -37.08173 146.34004 24690 ft 361 kts 234°
2026-04-20 14:33 -37.09560 146.31385 24282 ft 360 kts 234°
2026-04-20 14:33 -37.10940 146.28776 23880 ft 358 kts 234°
2026-04-20 14:34 -37.12313 146.26180 23422 ft 357 kts 234°
2026-04-20 14:34 -37.13678 146.23597 22996 ft 354 kts 234°
2026-04-20 14:34 -37.15032 146.21031 22586 ft 352 kts 234°
2026-04-20 14:34 -37.16379 146.18477 22159 ft 350 kts 234°
2026-04-20 14:35 -37.17705 146.15962 21746 ft 348 kts 234°
2026-04-20 14:35 -37.19035 146.13437 21352 ft 346 kts 234°
2026-04-20 14:35 -37.20359 146.10922 20955 ft 344 kts 234°
2026-04-20 14:35 -37.21676 146.08419 20558 ft 342 kts 234°
2026-04-20 14:36 -37.22983 146.05932 20178 ft 341 kts 234°
2026-04-20 14:36 -37.24286 146.03451 19797 ft 339 kts 234°
2026-04-20 14:36 -37.25580 146.00986 19440 ft 337 kts 234°
2026-04-20 14:36 -37.26850 145.98564 19083 ft 335 kts 234°
2026-04-20 14:37 -37.28129 145.96123 18719 ft 334 kts 234°
2026-04-20 14:37 -37.29402 145.93693 18302 ft 330 kts 234°
2026-04-20 14:37 -37.30658 145.91293 17748 ft 328 kts 235°
2026-04-20 14:37 -37.31916 145.88901 17175 ft 327 kts 235°
2026-04-20 14:38 -37.33172 145.86519 16758 ft 327 kts 235°
2026-04-20 14:38 -37.34428 145.84137 16376 ft 325 kts 235°
2026-04-20 14:38 -37.35672 145.81774 16009 ft 323 kts 235°
2026-04-20 14:38 -37.36894 145.79451 15648 ft 321 kts 235°
2026-04-20 14:39 -37.38124 145.77111 15300 ft 320 kts 235°
2026-04-20 14:39 -37.39349 145.74778 14940 ft 318 kts 235°
2026-04-20 14:39 -37.40565 145.72460 14592 ft 317 kts 235°
2026-04-20 14:39 -37.41779 145.70147 14236 ft 316 kts 235°
2026-04-20 14:40 -37.42986 145.67842 13848 ft 315 kts 236°
2026-04-20 14:40 -37.44187 145.65549 13472 ft 313 kts 236°
2026-04-20 14:40 -37.45366 145.63255 13107 ft 311 kts 241°
2026-04-20 14:40 -37.45976 145.60652 12751 ft 311 kts 264°
2026-04-20 14:41 -37.45828 145.57931 12324 ft 314 kts 278°
2026-04-20 14:41 -37.45440 145.55235 11958 ft 312 kts 278°
2026-04-20 14:41 -37.45137 145.52565 11608 ft 311 kts 275°
2026-04-20 14:41 -37.44965 145.49855 11254 ft 309 kts 272°
2026-04-20 14:42 -37.44888 145.47157 10903 ft 307 kts 270°
2026-04-20 14:42 -37.44848 145.44484 10690 ft 301 kts 270°
2026-04-20 14:42 -37.44818 145.41865 10309 ft 295 kts 270°
2026-04-20 14:42 -37.44791 145.39324 10097 ft 283 kts 270°
2026-04-20 14:43 -37.44762 145.36891 9883 ft 276 kts 270°
2026-04-20 14:43 -37.44733 145.34512 9591 ft 274 kts 270°
2026-04-20 14:43 -37.44703 145.32119 9302 ft 273 kts 271°
2026-04-20 14:43 -37.44673 145.29735 9017 ft 271 kts 271°
2026-04-20 14:44 -37.44642 145.27365 8735 ft 269 kts 271°
2026-04-20 14:44 -37.44612 145.25012 8451 ft 268 kts 271°
2026-04-20 14:44 -37.44581 145.22664 8170 ft 267 kts 271°
2026-04-20 14:44 -37.44549 145.20338 7889 ft 266 kts 271°
2026-04-20 14:45 -37.44517 145.18006 7613 ft 265 kts 272°
2026-04-20 14:45 -37.44485 145.15722 7326 ft 264 kts 272°
2026-04-20 14:45 -37.44452 145.13413 7021 ft 264 kts 272°
2026-04-20 14:45 -37.44419 145.11103 6753 ft 263 kts 272°
2026-04-20 14:46 -37.44386 145.08800 6453 ft 263 kts 272°
2026-04-20 14:46 -37.44352 145.06505 6161 ft 262 kts 272°
2026-04-20 14:46 -37.44318 145.04219 5918 ft 257 kts 272°
2026-04-20 14:46 -37.44286 145.02017 5793 ft 245 kts 272°
2026-04-20 14:47 -37.44254 144.99912 5603 ft 237 kts 272°
2026-04-20 14:47 -37.44223 144.97911 5406 ft 228 kts 272°
2026-04-20 14:47 -37.44192 144.95942 5183 ft 223 kts 272°
2026-04-20 14:48 -37.44422 144.92077 4886 ft 219 kts 260°
2026-04-20 14:48 -37.44709 144.90231 4774 ft 209 kts 260°
2026-04-20 14:48 -37.44976 144.88478 4659 ft 199 kts 261°
2026-04-20 14:48 -37.45233 144.86725 4294 ft 203 kts 261°
2026-04-20 14:49 -37.45477 144.85038 4178 ft 193 kts 261°
2026-04-20 14:49 -37.45711 144.83395 4131 ft 191 kts 261°
2026-04-20 14:49 -37.46028 144.81752 4072 ft 197 kts 243°
2026-04-20 14:49 -37.47038 144.80659 3992 ft 195 kts 196°
2026-04-20 14:50 -37.47928 144.80549 3884 ft 194 kts 177°
2026-04-20 14:50 -37.49282 144.80617 3605 ft 193 kts 177°
2026-04-20 14:50 -37.50588 144.80761 3349 ft 183 kts 172°
2026-04-20 14:50 -37.51818 144.80971 3106 ft 172 kts 171°
2026-04-20 14:51 -37.53336 144.81253 2834 ft 166 kts 170°
2026-04-20 14:51 -37.54087 144.81394 2686 ft 163 kts 170°
2026-04-20 14:51 -37.55197 144.81601 2458 ft 157 kts 170°
2026-04-20 14:51 -37.56235 144.81794 2273 ft 143 kts 169°
2026-04-20 14:52 -37.57227 144.81980 2083 ft 145 kts 169°
2026-04-20 14:52 -37.58531 144.82224 1810 ft 140 kts 170°
2026-04-20 14:52 -37.59178 144.82345 1708 ft 140 kts 170°
2026-04-20 14:52 -37.60136 144.82524 1504 ft 141 kts 170°
2026-04-20 14:53 -37.61116 144.82707 1322 ft 142 kts 172°
2026-04-20 14:53 -37.62099 144.82890 1130 ft 142 kts 172°
2026-04-20 14:53 -37.63066 144.83071 944 ft 141 kts 173°
2026-04-20 14:53 -37.64037 144.83252 762 ft 141 kts 173°
2026-04-20 14:54 -37.65018 144.83435 558 ft 143 kts 172°
2026-04-20 14:54 -37.65985 144.83615 412 ft 132 kts 172°
2026-04-20 14:54 -37.66774 144.83762 391 ft 93 kts 171°
2026-04-20 14:54 -37.67276 144.83856 375 ft 61 kts 171°
2026-04-20 14:55 -37.67650 144.83926 363 ft 41 kts 172°
2026-04-20 14:55 -37.67829 144.83975 356 ft 16 kts 146°
2026-04-20 14:55 -37.67875 144.84092 356 ft 14 kts 87°
2026-04-20 14:55 -37.67867 144.84168 361 ft 5 kts 82°
2026-04-20 14:56 -37.67862 144.84210 361 ft 5 kts 82°
2026-04-20 14:56 -37.67857 144.84250 359 ft 5 kts 81°
2026-04-20 14:56 -37.67852 144.84290 362 ft 5 kts 81°
2026-04-20 14:56 -37.67847 144.84332 363 ft 6 kts 82°
2026-04-20 14:57 -37.67839 144.84404 367 ft 11 kts 81°
2026-04-20 14:57 -37.67827 144.84500 365 ft 11 kts 82°
2026-04-20 14:57 -37.67808 144.84580 368 ft 9 kts 52°
2026-04-20 14:57 -37.67756 144.84622 372 ft 9 kts 46°
2026-04-20 14:58 -37.67738 144.84692 370 ft 9 kts 81°
2026-04-20 14:58 -37.67743 144.84764 371 ft 9 kts 134°
2026-04-20 14:58 -37.67803 144.84783 368 ft 8 kts 171°
2026-04-20 14:58 -37.67813 144.84785 371 ft 0 kts 172°